This is the latest recevied weather packets stored in our database for station/object WMKN. If no packets are shown the sender has not sent any weather packets the latest 10 day(s).
| Time | Temp. | Humidity | Pressure | Rain* | Wind** | Luminosity | Snow |
|---|---|---|---|---|---|---|---|
| 1788153293 | 89° F | 74% | 758.3 mmHg | - | - | - | - |
| 1788149693 | 89° F | 74% | 758.3 mmHg | - | - | - | - |
| 1788146093 | 87° F | 66% | 759.1 mmHg | - | - | - | - |
| 1788142493 | 84° F | 79% | 759.1 mmHg | - | - | - | - |
| 1788138912 | 80° F | 88% | 759.1 mmHg | - | - | - | - |
| 1788135293 | 77° F | 94% | 758.3 mmHg | - | - | - | - |
| 1788131693 | 77° F | 94% | 758.3 mmHg | - | - | - | - |
| 1788128093 | 77° F | 94% | 757.6 mmHg | - | - | - | - |
| 1788124499 | 77° F | 94% | 757.6 mmHg | - | - | - | - |
| 1788120907 | 77° F | 88% | 757.6 mmHg | - | - | - | - |
| 1788117292 | 77° F | 88% | 757.6 mmHg | - | - | - | - |
| 1788113692 | 77° F | 88% | 758.3 mmHg | - | - | - | - |
| 1788110098 | 77° F | 88% | 759.1 mmHg | - | - | - | - |
| 1788106506 | 78° F | 83% | 759.1 mmHg | - | - | - | - |
| 1788102892 | 82° F | 88% | 759.1 mmHg | - | - | - | - |
| 1788099292 | 80° F | 88% | 759.1 mmHg | - | - | - | - |
| 1788095698 | 84° F | 83% | 758.3 mmHg | - | - | - | - |
| 1788092104 | 84° F | 83% | 757.6 mmHg | - | - | - | - |
| 1788088492 | 86° F | 84% | 756.8 mmHg | - | - | - | - |
| 1788084891 | 87° F | 74% | 756.8 mmHg | - | - | - | - |
| 1788081298 | 87° F | 74% | 756.8 mmHg | - | - | - | - |
| 1788077704 | 89° F | 70% | 756.8 mmHg | - | - | - | - |
| 1788074091 | 89° F | 70% | 756.8 mmHg | - | - | - | - |
| 1788070491 | 87° F | 70% | 757.6 mmHg | - | - | - | - |
| 1788066897 | 86° F | 74% | 758.3 mmHg | - | - | - | - |
* Rain since midnight (hover to see other rain measurements)
** Current wind speed in m/s (hover to see current wind gust speed)